Location: Newark
(42.5833°N, 2.9500°W)
Time: 04:36:18
(UTC+00:00)

N. Korean satellite - Visible Passes

Search period start: 14 November 2019 00:00
Search period end: 24 November 2019 00:00
Orbit: 456 x 506 km, 97.2° (Epoch: 12 November)

Date Brightness Start Highest point End Pass type
(mag) Time Alt. Az. Time Alt. Az. Time Alt. Az.
14 Nov 9.8 05:11:13 10° NE 05:13:40 17° E 05:16:06 10° SE visible
14 Nov 6.7 17:19:12 10° S 17:22:47 82° WSW 17:26:28 10° NNW visible
15 Nov 6.6 06:18:09 10° N 06:21:52 68° WNW 06:25:31 10° SSW visible
15 Nov 10.2 18:29:53 10° WSW 18:31:08 11° W 18:32:23 10° WNW visible
16 Nov 7.4 05:52:49 10° NNE 05:56:30 55° E 06:00:06 10° S visible
16 Nov 9.3 18:02:38 10° SSW 18:05:32 23° W 18:08:30 10° NW visible
17 Nov 9.0 05:27:51 10° NE 05:31:02 26° E 05:34:09 10° SSE visible
17 Nov 7.8 17:36:33 10° S 17:40:02 47° W 17:43:37 10° NNW visible
18 Nov 10.1 05:03:35 10° ENE 05:05:27 13° E 05:07:19 10° ESE visible
18 Nov 7.1 06:35:33 10° N 06:39:03 40° WNW 06:42:30 10° SW visible
18 Nov 6.6 17:11:01 10° SSE 17:14:38 79° ENE 17:18:20 10° N visible
19 Nov 6.6 06:10:00 10° N 06:13:43 87° WNW 06:17:23 10° SSW visible
19 Nov 10.0 18:20:49 10° SW 18:22:52 14° W 18:24:58 10° WNW visible
20 Nov 8.0 05:44:45 10° NNE 05:48:18 43° E 05:51:48 10° S visible
20 Nov 8.9 17:54:08 10° SSW 17:57:19 28° W 18:00:34 10° NW visible
21 Nov 9.4 05:19:56 10° NE 05:22:48 21° E 05:25:37 10° SE visible
21 Nov 7.3 17:28:14 10° S 17:31:51 61° W 17:35:31 10° NNW visible
22 Nov 10.3 04:56:24 10° ENE 04:57:11 11° E 04:57:57 10° ESE visible
22 Nov 6.8 06:27:17 10° N 06:30:53 50° WNW 06:34:25 10° SSW visible
23 Nov 6.8 06:01:50 10° NNE 06:05:32 74° ESE 06:09:08 10° S visible
23 Nov 9.7 18:12:02 10° SW 18:14:36 18° W 18:17:13 10° NW visible
